Home   Weather   Arlington   Past weeks

Flag for USA Past Weather in Arlington, Texas, USA — Yesterday and Last 2 Weeks

Now
38 °F

Overcast.


Feels Like: 33 °F
Forecast: 34 / 52 °F
Wind: 7 mph from Southeast

Location: Arlington Municipal Airport

Current Time: Dec 10, 2016 at 3:04:50 am

Latest Report: Dec 10, 2016 at 1:53 am


Visibility: 10 mi

Pressure: 30.49 "Hg

Humidity: 58%

Dew Point: 24 °F

Location of ArlingtonLocation

Past Weather in Arlington — Graph

°F

Arlington Temperature Yesterday

Maximum temperature yesterday: 40 °F (at 3:53 pm)
Minimum temperature yesterday: 25 °F (at 2:53 am)
Average temperature yesterday: 33 °F

High & Low Weather Summary for the Past Weeks

 TemperatureHumidityPressure
High73 °F (Nov 28, 2:53 pm)97% (Dec 4, 8:01 am)30.70 "Hg (Dec 4, 8:01 am)
Low25 °F (Dec 9, 2:53 am)17% (Nov 28, 3:53 pm)29.43 "Hg (Nov 28, 1:53 pm)
Average51 °F66%30.07 "Hg
* Reported Nov 25 1:53 am — Dec 10 1:53 am, Arlington, Weather by CustomWeather, © 2016

Note: Actual official high and low records may vary slightly from our data, if they occured in-between our weather recording intervals... More about our weather records

Advertising

Arlington Weather History for the Previous 24 Hours

Scroll right to see more
 ConditionsComfort  
Time TempWeatherWind HumidityBarometerVisibility
1:53 am
Sat, Dec 10
38 °FOvercast.7 mph58%30.49 "Hg10 mi
12:53 am37 °FOvercast.9 mph60%30.50 "Hg10 mi
11:53 pm
Fri, Dec 9
32 °FOvercast.No wind82%30.52 "Hg10 mi
10:53 pm30 °FPassing clouds.No wind79%30.52 "Hg10 mi
9:53 pm32 °FPassing clouds.No wind66%30.53 "Hg10 mi
8:53 pm32 °FClear.3 mph66%30.51 "Hg10 mi
7:53 pm35 °FClear.5 mph54%30.52 "Hg10 mi
6:53 pm36 °FClear.5 mph52%30.52 "Hg10 mi
5:53 pm37 °FClear.8 mph48%30.50 "Hg10 mi
4:53 pm39 °FPartly sunny.3 mph39%30.53 "Hg10 mi
3:53 pm40 °FScattered clouds.No wind35%30.53 "Hg10 mi
2:53 pm38 °FOvercast.3 mph36%30.54 "Hg10 mi
1:53 pm38 °FOvercast.5 mph37%30.55 "Hg10 mi
12:53 pm36 °FOvercast.3 mph38%30.59 "Hg10 mi
11:53 am35 °FOvercast.No wind42%30.64 "Hg10 mi
10:53 am34 °FOvercast.7 mph42%30.66 "Hg10 mi
9:53 am34 °FOvercast.8 mph44%30.67 "Hg10 mi
8:53 am32 °FOvercast.6 mph47%30.67 "Hg10 mi
7:53 am31 °FOvercast.7 mph52%30.67 "Hg10 mi
6:53 am31 °FOvercast.6 mph59%30.67 "Hg10 mi
5:53 am30 °FOvercast.6 mph66%30.65 "Hg10 mi
4:53 am28 °FOvercast.No wind69%30.65 "Hg10 mi
3:53 am27 °FPassing clouds.6 mph69%30.66 "Hg10 mi
Weather by CustomWeather, © 2016

See weather overviewHow to use our weather pages